TSC107 MMAA-CYMX

Flight info

Callsign TSC107
Flight time 4h 50m
Altitude 35000
Route ALNUS1B ALNUS DCT TAM DCT AXEXO M345 TBD DCT MEI DCT LVT DCT AIR DCT ROC DCT YUL
Aircraft MD11/H-SDE1E2E3FGHIJ2J3J4J5M1RWXY/LB1D1

Departure

Time 2026-04-24 16:34
Airport General Juan N. Álvarez International Airport (MMAA)

Arrival

Time 2026-04-24 21:24
Airport Montreal Mirabel International Airport (CYMX)
Time Latitude Longitude Altitude Speed Heading
2026-04-24 16:00 16.76117 -99.75492 25 ft 0 kts 18°
2026-04-24 16:22 16.76116 -99.75493 24 ft 2 kts 18°
2026-04-24 16:23 16.76093 -99.75502 28 ft 4 kts 23°
2026-04-24 16:23 16.76068 -99.75514 25 ft 4 kts 32°
2026-04-24 16:23 16.76047 -99.75531 27 ft 4 kts 49°
2026-04-24 16:24 16.76036 -99.75557 25 ft 4 kts 109°
2026-04-24 16:27 16.76035 -99.75553 25 ft 3 kts 109°
2026-04-24 16:28 16.76019 -99.75504 30 ft 11 kts 108°
2026-04-24 16:28 16.75966 -99.75424 27 ft 17 kts 145°
2026-04-24 16:28 16.75833 -99.75136 28 ft 28 kts 108°
2026-04-24 16:29 16.75774 -99.74947 27 ft 26 kts 108°
2026-04-24 16:29 16.75722 -99.74782 25 ft 24 kts 107°
2026-04-24 16:29 16.75625 -99.74469 24 ft 25 kts 108°
2026-04-24 16:30 16.75516 -99.74124 25 ft 26 kts 108°
2026-04-24 16:30 16.75457 -99.73933 29 ft 29 kts 108°
2026-04-24 16:30 16.75400 -99.73754 28 ft 23 kts 109°
2026-04-24 16:31 16.75352 -99.73605 28 ft 20 kts 108°
2026-04-24 16:31 16.75314 -99.73481 28 ft 16 kts 108°
2026-04-24 16:31 16.75278 -99.73378 25 ft 14 kts 115°
2026-04-24 16:31 16.75214 -99.73338 25 ft 9 kts 177°
2026-04-24 16:32 16.75177 -99.73342 25 ft 7 kts 191°
2026-04-24 16:32 16.75117 -99.73362 26 ft 8 kts 198°
2026-04-24 16:32 16.75090 -99.73373 26 ft 1 kts 213°
2026-04-24 16:32 16.75086 -99.73389 26 ft 2 kts 265°
2026-04-24 16:33 16.75090 -99.73398 26 ft 0 kts 286°
2026-04-24 16:33 16.75091 -99.73401 26 ft 9 kts 286°
2026-04-24 16:33 16.75207 -99.73768 24 ft 95 kts 288°
2026-04-24 16:34 16.75493 -99.74682 28 ft 166 kts 288°
2026-04-24 16:34 16.75893 -99.75976 301 ft 198 kts 287°
2026-04-24 16:34 16.76333 -99.77364 1114 ft 190 kts 286°
2026-04-24 16:34 16.76712 -99.78600 2408 ft 185 kts 286°
2026-04-24 16:35 16.77097 -99.79894 3357 ft 192 kts 287°
2026-04-24 16:35 16.77538 -99.81363 3564 ft 230 kts 287°
2026-04-24 16:35 16.78056 -99.83061 3728 ft 261 kts 287°
2026-04-24 16:35 16.78625 -99.84908 4417 ft 268 kts 289°
2026-04-24 16:36 16.79426 -99.86702 5020 ft 273 kts 304°
2026-04-24 16:36 16.80821 -99.88064 5484 ft 278 kts 329°
2026-04-24 16:36 16.82611 -99.88843 5867 ft 281 kts 341°
2026-04-24 16:36 16.84509 -99.89404 5989 ft 284 kts 344°
2026-04-24 16:37 16.85801 -99.89752 6011 ft 284 kts 344°
2026-04-24 16:37 16.88342 -99.90432 6022 ft 284 kts 344°
2026-04-24 16:37 16.89609 -99.90776 5999 ft 284 kts 344°
2026-04-24 16:37 16.91526 -99.91297 6016 ft 285 kts 343°
2026-04-24 16:38 16.93440 -99.91818 6008 ft 285 kts 345°
2026-04-24 16:38 16.95411 -99.92052 6033 ft 290 kts
2026-04-24 16:38 16.97318 -99.91476 7041 ft 288 kts 24°
2026-04-24 16:38 16.99104 -99.90489 7930 ft 294 kts 29°
2026-04-24 16:39 17.00864 -99.89379 8810 ft 297 kts 31°
2026-04-24 16:39 17.02636 -99.88234 9652 ft 302 kts 31°
2026-04-24 16:39 17.04437 -99.87069 10285 ft 314 kts 31°
2026-04-24 16:39 17.06382 -99.85815 10443 ft 342 kts 31°
2026-04-24 16:40 17.08489 -99.84461 10628 ft 367 kts 31°
2026-04-24 16:40 17.10683 -99.83056 11401 ft 371 kts 31°
2026-04-24 16:40 17.12897 -99.81641 12228 ft 375 kts 31°
2026-04-24 16:40 17.15132 -99.80214 13024 ft 379 kts 31°
2026-04-24 16:41 17.17386 -99.78776 13792 ft 381 kts 31°
2026-04-24 16:41 17.19682 -99.77362 14478 ft 385 kts 26°
2026-04-24 16:41 17.22212 -99.76444 15157 ft 387 kts
2026-04-24 16:41 17.24899 -99.76206 15780 ft 390 kts
2026-04-24 16:42 17.27626 -99.76267 16398 ft 394 kts 357°
2026-04-24 16:42 17.30375 -99.76412 17018 ft 396 kts 357°
2026-04-24 16:42 17.33140 -99.76559 17611 ft 399 kts 357°
2026-04-24 16:42 17.35927 -99.76680 18177 ft 403 kts 358°
2026-04-24 16:43 17.38733 -99.76777 18742 ft 405 kts 358°
2026-04-24 16:43 17.41565 -99.76857 19292 ft 408 kts 358°
2026-04-24 16:43 17.44410 -99.76926 19804 ft 411 kts 358°
2026-04-24 16:43 17.47281 -99.76991 20285 ft 414 kts 358°
2026-04-24 16:44 17.50171 -99.77054 20780 ft 417 kts 358°
2026-04-24 16:44 17.53078 -99.77116 21274 ft 420 kts 358°
2026-04-24 16:44 17.56008 -99.77180 21764 ft 422 kts 358°
2026-04-24 16:44 17.58913 -99.77248 22244 ft 425 kts 358°
2026-04-24 16:45 17.61874 -99.77147 22676 ft 428 kts
2026-04-24 16:45 17.64790 -99.76451 23133 ft 432 kts 16°
2026-04-24 16:45 17.67637 -99.75403 23635 ft 436 kts 20°
2026-04-24 16:45 17.70466 -99.74217 24145 ft 439 kts 21°
2026-04-24 16:46 17.73302 -99.72998 24629 ft 442 kts 20°
2026-04-24 16:46 17.76162 -99.71790 25073 ft 445 kts 20°
2026-04-24 16:46 17.79054 -99.70591 25553 ft 449 kts 20°
2026-04-24 16:46 17.81974 -99.69401 25976 ft 453 kts 20°
2026-04-24 16:47 17.84925 -99.68211 26416 ft 456 kts 19°
2026-04-24 16:47 17.87898 -99.67022 26847 ft 459 kts 19°
2026-04-24 16:47 17.90895 -99.65823 27290 ft 462 kts 19°
2026-04-24 16:47 17.93912 -99.64615 27705 ft 465 kts 19°
2026-04-24 16:48 17.96944 -99.63400 28127 ft 468 kts 19°
2026-04-24 16:48 18.00003 -99.62172 28521 ft 472 kts 19°
2026-04-24 16:48 18.03080 -99.60939 28946 ft 474 kts 19°
2026-04-24 16:48 18.06174 -99.59700 29312 ft 478 kts 19°
2026-04-24 16:49 18.09291 -99.58449 29692 ft 481 kts 19°
2026-04-24 16:49 18.12424 -99.57192 30032 ft 484 kts 19°
2026-04-24 16:49 18.15576 -99.55925 30408 ft 485 kts 19°
2026-04-24 16:49 18.18729 -99.54658 30841 ft 484 kts 19°
2026-04-24 16:50 18.20809 -99.53821 31128 ft 484 kts 19°
2026-04-24 16:50 18.25016 -99.52132 31710 ft 483 kts 19°
2026-04-24 16:50 18.28157 -99.50869 32120 ft 482 kts 19°
2026-04-24 16:50 18.31289 -99.49613 32491 ft 482 kts 18°
2026-04-24 16:51 18.34421 -99.48354 32868 ft 481 kts 18°
2026-04-24 16:51 18.37549 -99.47096 33222 ft 481 kts 18°
2026-04-24 16:51 18.40666 -99.45842 33593 ft 480 kts 18°
2026-04-24 16:51 18.43788 -99.44582 33920 ft 479 kts 18°
2026-04-24 16:52 18.46896 -99.43326 34226 ft 479 kts 18°
2026-04-24 16:52 18.50003 -99.42071 34535 ft 478 kts 18°
2026-04-24 16:52 18.53108 -99.40817 34831 ft 478 kts 18°
2026-04-24 16:52 18.56210 -99.39564 35084 ft 478 kts 18°
2026-04-24 16:53 18.62382 -99.37071 35178 ft 477 kts 18°
2026-04-24 16:53 18.68585 -99.34565 35175 ft 477 kts 18°
2026-04-24 16:54 18.74790 -99.32058 35169 ft 477 kts 18°
2026-04-24 16:54 18.80997 -99.29548 35159 ft 478 kts 18°
2026-04-24 16:55 18.87197 -99.27036 35156 ft 477 kts 18°
2026-04-24 16:55 18.93400 -99.24518 35147 ft 478 kts 18°
2026-04-24 16:56 18.99600 -99.22003 35153 ft 477 kts 18°
2026-04-24 16:56 19.05800 -99.19485 35169 ft 478 kts 18°
2026-04-24 16:57 19.12003 -99.16965 35208 ft 478 kts 18°
2026-04-24 16:57 19.18209 -99.14443 35252 ft 478 kts 18°
2026-04-24 16:58 19.24411 -99.11918 35291 ft 477 kts 18°
2026-04-24 16:58 19.30606 -99.09389 35307 ft 477 kts 18°
2026-04-24 16:59 19.36805 -99.06860 35310 ft 477 kts 18°
2026-04-24 17:00 19.46095 -99.03067 35320 ft 477 kts 18°
2026-04-24 17:00 19.55342 -98.99292 35315 ft 477 kts 18°
2026-04-24 17:01 19.64627 -98.95494 35308 ft 477 kts 18°
2026-04-24 17:02 19.73924 -98.91688 35303 ft 477 kts 18°
2026-04-24 17:02 19.80110 -98.89152 35304 ft 477 kts 17°
2026-04-24 17:03 19.89399 -98.85338 35274 ft 477 kts 17°
2026-04-24 17:04 19.95588 -98.82795 35243 ft 477 kts 17°
2026-04-24 17:04 20.04879 -98.78967 35195 ft 477 kts 17°
2026-04-24 17:05 20.11071 -98.76415 35147 ft 477 kts 17°
2026-04-24 17:06 20.20356 -98.72589 35083 ft 477 kts 17°
2026-04-24 17:06 20.29645 -98.68760 35066 ft 477 kts 17°
2026-04-24 17:07 20.35836 -98.66202 35057 ft 477 kts 17°
2026-04-24 17:08 20.48214 -98.61077 35046 ft 477 kts 17°
2026-04-24 17:08 20.54418 -98.58510 35046 ft 478 kts 17°
2026-04-24 17:09 20.66814 -98.53371 35055 ft 478 kts 17°
2026-04-24 17:10 20.79210 -98.48208 35044 ft 478 kts 17°
2026-04-24 17:12 21.03944 -98.37906 34997 ft 478 kts 17°
2026-04-24 18:54 31.98534 -89.10904 34963 ft 477 kts 31°
2026-04-24 18:55 32.06864 -89.04507 34965 ft 475 kts 31°
2026-04-24 18:56 32.12398 -89.00244 34971 ft 475 kts 31°
2026-04-24 18:56 32.17925 -88.95981 34971 ft 475 kts 31°
2026-04-24 18:57 32.23453 -88.91715 34978 ft 474 kts 31°
2026-04-24 18:57 32.28981 -88.87440 34980 ft 474 kts 31°
2026-04-24 18:58 32.34494 -88.83170 34980 ft 474 kts 31°
2026-04-24 18:58 32.39986 -88.78835 34982 ft 474 kts 32°
2026-04-24 18:59 32.45409 -88.74395 34980 ft 474 kts 33°
2026-04-24 18:59 32.50820 -88.69941 34986 ft 474 kts 33°
2026-04-24 19:00 32.56242 -88.65489 34994 ft 474 kts 32°
2026-04-24 19:00 32.61657 -88.61046 34985 ft 473 kts 33°
2026-04-24 19:01 32.67038 -88.56624 34986 ft 473 kts 33°
2026-04-24 19:01 32.72485 -88.52143 34963 ft 473 kts 33°
2026-04-24 19:02 32.76988 -88.48435 34969 ft 473 kts 33°
2026-04-24 19:02 32.83273 -88.43245 34968 ft 473 kts 33°
2026-04-24 19:03 32.88670 -88.38778 34961 ft 473 kts 33°
2026-04-24 19:03 32.94078 -88.34302 34963 ft 473 kts 33°
2026-04-24 19:04 32.99479 -88.29825 34962 ft 473 kts 33°
2026-04-24 19:04 33.04903 -88.25316 34963 ft 472 kts 33°
2026-04-24 19:05 33.10282 -88.20823 34969 ft 472 kts 33°
2026-04-24 19:05 33.15619 -88.16359 34972 ft 472 kts 33°
2026-04-24 19:06 33.20996 -88.11866 34970 ft 471 kts 33°
2026-04-24 19:06 33.26371 -88.07374 34972 ft 471 kts 33°
2026-04-24 19:07 33.31773 -88.02859 34962 ft 471 kts 33°
2026-04-24 19:07 33.36230 -87.99123 34964 ft 471 kts 33°
2026-04-24 19:08 33.42449 -87.93899 34960 ft 469 kts 33°
2026-04-24 19:08 33.47784 -87.89410 34962 ft 469 kts 33°
2026-04-24 19:09 33.53126 -87.84913 34961 ft 469 kts 33°
2026-04-24 19:09 33.58469 -87.80408 34963 ft 469 kts 33°
2026-04-24 19:10 33.63805 -87.75900 34964 ft 469 kts 33°
2026-04-24 19:10 33.69139 -87.71385 34964 ft 469 kts 33°
2026-04-24 19:11 33.74475 -87.66862 34959 ft 469 kts 33°
2026-04-24 19:11 33.79764 -87.62350 34960 ft 469 kts 34°
2026-04-24 19:12 33.85121 -87.57784 34969 ft 469 kts 33°
2026-04-24 19:12 33.90407 -87.53276 34970 ft 469 kts 34°
2026-04-24 19:13 33.94865 -87.49478 34971 ft 469 kts 33°
2026-04-24 19:13 34.01049 -87.44197 34972 ft 469 kts 34°
2026-04-24 19:14 34.06366 -87.39650 34973 ft 468 kts 34°
2026-04-24 19:14 34.11669 -87.35106 34980 ft 468 kts 34°
2026-04-24 19:15 34.16973 -87.30554 34980 ft 467 kts 34°
2026-04-24 19:15 34.22264 -87.26006 34979 ft 467 kts 34°
2026-04-24 19:16 34.30197 -87.19178 34982 ft 466 kts 34°
2026-04-24 19:16 34.35473 -87.14628 34981 ft 466 kts 34°
2026-04-24 19:17 34.40743 -87.10068 34979 ft 466 kts 34°
2026-04-24 19:17 34.46006 -87.05493 34980 ft 465 kts 34°
2026-04-24 19:18 34.51264 -87.00916 34973 ft 465 kts 34°
2026-04-24 19:18 34.56517 -86.96350 34971 ft 465 kts 34°
2026-04-24 19:19 34.61770 -86.91783 34963 ft 464 kts 34°
2026-04-24 19:19 34.67017 -86.87213 34962 ft 464 kts 34°
2026-04-24 19:20 34.72258 -86.82640 34967 ft 464 kts 34°
2026-04-24 19:20 34.77493 -86.78061 34970 ft 464 kts 34°
2026-04-24 19:21 34.82733 -86.73476 34966 ft 463 kts 34°
2026-04-24 19:21 34.87963 -86.68896 34961 ft 463 kts 34°
2026-04-24 19:22 34.93191 -86.64305 34968 ft 463 kts 34°
2026-04-24 19:22 34.98421 -86.59705 34970 ft 464 kts 34°
2026-04-24 19:23 35.03645 -86.55106 34970 ft 463 kts 33°
2026-04-24 19:23 35.08866 -86.50499 34971 ft 463 kts 34°
2026-04-24 19:24 35.14068 -86.45877 34971 ft 462 kts 34°
2026-04-24 19:24 35.19268 -86.41256 34963 ft 462 kts 34°
2026-04-24 19:25 35.24469 -86.36639 34955 ft 462 kts 34°
2026-04-24 19:25 35.29674 -86.32021 34944 ft 462 kts 33°
2026-04-24 19:26 35.34876 -86.27388 34942 ft 462 kts 33°
2026-04-24 19:26 35.40072 -86.22759 34947 ft 462 kts 33°
2026-04-24 19:27 35.45263 -86.18128 34942 ft 462 kts 33°
2026-04-24 19:27 35.50453 -86.13490 34943 ft 461 kts 33°
2026-04-24 19:28 35.55631 -86.08851 34936 ft 461 kts 33°
2026-04-24 19:28 35.60781 -86.04238 34936 ft 461 kts 33°
2026-04-24 19:29 35.68541 -85.97261 34932 ft 461 kts 33°
2026-04-24 19:30 35.73708 -85.92605 34932 ft 460 kts 33°
2026-04-24 19:30 35.78872 -85.87936 34933 ft 460 kts 33°
2026-04-24 19:31 35.84017 -85.83262 34933 ft 460 kts 33°
2026-04-24 19:31 35.89171 -85.78590 34932 ft 459 kts 33°
2026-04-24 19:32 35.94321 -85.73917 34935 ft 460 kts 33°
2026-04-24 19:32 35.99471 -85.69239 34935 ft 459 kts 33°
2026-04-24 19:33 36.03789 -85.65315 34937 ft 460 kts 33°
2026-04-24 19:33 36.08911 -85.60654 34939 ft 460 kts 33°
2026-04-24 19:34 36.14064 -85.55953 34932 ft 461 kts 33°
2026-04-24 19:34 36.19223 -85.51245 34933 ft 461 kts 33°
2026-04-24 19:35 36.24371 -85.46529 34940 ft 460 kts 33°
2026-04-24 19:35 36.29527 -85.41799 34945 ft 461 kts 34°
2026-04-24 19:36 36.34681 -85.37064 34935 ft 461 kts 33°
2026-04-24 19:36 36.39835 -85.32325 34937 ft 461 kts 34°
2026-04-24 19:37 36.44997 -85.27566 34939 ft 462 kts 34°
2026-04-24 19:37 36.50146 -85.22785 34932 ft 462 kts 34°
2026-04-24 19:38 36.55300 -85.18000 34944 ft 463 kts 34°
2026-04-24 19:38 36.60466 -85.13214 34941 ft 463 kts 34°
2026-04-24 19:39 36.65627 -85.08425 34940 ft 463 kts 34°
2026-04-24 19:39 36.70777 -85.03616 34937 ft 463 kts 36°
2026-04-24 19:40 36.75627 -84.98252 35223 ft 468 kts 41°
2026-04-24 19:40 36.77967 -84.95421 35541 ft 468 kts 41°
2026-04-24 19:40 36.80287 -84.92581 35863 ft 467 kts 41°
2026-04-24 19:40 36.82607 -84.89750 36171 ft 466 kts 41°
2026-04-24 19:41 36.84930 -84.86927 36463 ft 466 kts 41°
2026-04-24 19:41 36.87257 -84.84116 36765 ft 465 kts 41°
2026-04-24 19:41 36.89574 -84.81323 36912 ft 460 kts 41°
2026-04-24 19:42 36.94110 -84.75851 36941 ft 454 kts 41°
2026-04-24 19:42 36.98655 -84.70361 36913 ft 454 kts 41°
2026-04-24 19:43 37.03187 -84.64878 36898 ft 453 kts 41°
2026-04-24 19:43 37.07719 -84.59388 36898 ft 453 kts 41°
2026-04-24 19:44 37.12249 -84.53888 36899 ft 453 kts 41°
2026-04-24 19:44 37.16775 -84.48384 36901 ft 453 kts 41°
2026-04-24 19:45 37.21298 -84.42885 36913 ft 453 kts 41°
2026-04-24 19:45 37.25809 -84.37381 36914 ft 452 kts 41°
2026-04-24 19:46 37.30314 -84.31868 36930 ft 452 kts 41°
2026-04-24 19:46 37.34803 -84.26339 36930 ft 452 kts 41°
2026-04-24 19:47 37.39294 -84.20802 36927 ft 452 kts 41°
2026-04-24 19:47 37.43790 -84.15275 36928 ft 452 kts 41°
2026-04-24 19:48 37.48279 -84.09739 36912 ft 451 kts 41°
2026-04-24 19:48 37.55003 -84.01441 36912 ft 451 kts 40°
2026-04-24 19:49 37.63960 -83.90360 36928 ft 451 kts 41°
2026-04-24 19:50 37.72897 -83.79249 36932 ft 451 kts 41°
2026-04-24 19:51 37.79596 -83.70905 36926 ft 450 kts 41°
2026-04-24 19:52 37.86289 -83.62544 36918 ft 451 kts 41°
2026-04-24 19:52 37.90722 -83.56989 36917 ft 452 kts 41°
2026-04-24 19:53 37.95169 -83.51373 36910 ft 452 kts 41°
2026-04-24 19:54 38.01855 -83.42942 36914 ft 452 kts 41°
2026-04-24 19:54 38.06321 -83.37310 36915 ft 453 kts 41°
2026-04-24 19:55 38.10062 -83.32586 36909 ft 454 kts 41°
2026-04-24 19:55 38.15259 -83.26014 36908 ft 454 kts 41°
2026-04-24 19:56 38.19735 -83.20343 36907 ft 454 kts 41°
2026-04-24 19:56 38.24208 -83.14663 36914 ft 455 kts 41°
2026-04-24 19:57 38.28687 -83.08966 36902 ft 455 kts 41°
2026-04-24 19:57 38.33172 -83.03258 36904 ft 456 kts 41°
2026-04-24 19:58 38.37653 -82.97535 36904 ft 456 kts 42°
2026-04-24 19:58 38.42164 -82.91761 36896 ft 457 kts 42°
2026-04-24 19:59 38.46617 -82.86055 36895 ft 457 kts 42°
2026-04-24 19:59 38.51094 -82.80294 36890 ft 457 kts 42°
2026-04-24 20:00 38.55562 -82.74510 36898 ft 458 kts 42°
2026-04-24 20:00 38.60033 -82.68724 36898 ft 457 kts 42°
2026-04-24 20:01 38.64537 -82.62903 36893 ft 458 kts 42°
2026-04-24 20:01 38.69019 -82.57106 36874 ft 458 kts 42°
2026-04-24 20:02 38.72745 -82.52287 36870 ft 458 kts 42°
2026-04-24 20:02 38.77949 -82.45536 36862 ft 458 kts 42°
2026-04-24 20:03 38.82428 -82.39710 36861 ft 458 kts 42°
2026-04-24 20:03 38.86900 -82.33878 36859 ft 459 kts 42°
2026-04-24 20:04 38.91380 -82.28024 36859 ft 459 kts 42°
2026-04-24 20:04 38.95854 -82.22170 36860 ft 459 kts 42°
2026-04-24 20:05 39.00331 -82.16308 36859 ft 459 kts 42°
2026-04-24 20:05 39.04796 -82.10443 36860 ft 458 kts 42°
2026-04-24 20:06 39.09249 -82.04563 36853 ft 459 kts 43°
2026-04-24 20:06 39.13695 -81.98660 36857 ft 459 kts 42°
2026-04-24 20:07 39.17399 -81.93753 36859 ft 459 kts 42°
2026-04-24 20:07 39.22576 -81.86903 36860 ft 459 kts 42°
2026-04-24 20:08 39.27030 -81.80992 36858 ft 460 kts 42°
2026-04-24 20:08 39.31485 -81.75073 36861 ft 459 kts 42°
2026-04-24 20:09 39.35934 -81.69148 36863 ft 459 kts 42°
2026-04-24 20:09 39.40378 -81.63217 36860 ft 459 kts 42°
2026-04-24 20:10 39.44820 -81.57280 36868 ft 459 kts 42°
2026-04-24 20:10 39.49259 -81.51336 36869 ft 459 kts 42°
2026-04-24 20:11 39.53699 -81.45380 36869 ft 459 kts 42°
2026-04-24 20:11 39.58135 -81.39418 36866 ft 459 kts 42°
2026-04-24 20:12 39.62563 -81.33451 36867 ft 459 kts 42°
2026-04-24 20:12 39.66236 -81.28482 36860 ft 459 kts 42°
2026-04-24 20:13 39.71360 -81.21508 36860 ft 459 kts 42°
2026-04-24 20:13 39.75774 -81.15502 36859 ft 460 kts 42°
2026-04-24 20:14 39.80198 -81.09494 36859 ft 460 kts 42°
2026-04-24 20:14 39.84619 -81.03478 36859 ft 460 kts 42°
2026-04-24 20:15 39.89037 -80.97460 36860 ft 460 kts 42°
2026-04-24 20:15 39.93456 -80.91434 36859 ft 459 kts 41°
2026-04-24 20:16 39.98281 -80.86067 36860 ft 454 kts 32°
2026-04-24 20:16 40.03396 -80.81234 36858 ft 453 kts 31°
2026-04-24 20:17 40.07644 -80.77244 36858 ft 453 kts 31°
2026-04-24 20:17 40.15264 -80.69952 36859 ft 452 kts 31°
2026-04-24 20:18 40.20323 -80.65065 36861 ft 452 kts 31°
2026-04-24 20:18 40.25385 -80.60160 36861 ft 452 kts 31°
2026-04-24 20:19 40.30450 -80.55254 36861 ft 453 kts 31°
2026-04-24 20:19 40.35507 -80.50345 36859 ft 452 kts 31°
2026-04-24 20:20 40.40562 -80.45425 36858 ft 452 kts 31°
2026-04-24 20:20 40.45609 -80.40504 36858 ft 452 kts 31°
2026-04-24 20:21 40.50653 -80.35576 36861 ft 452 kts 31°
2026-04-24 20:21 40.55697 -80.30636 36859 ft 452 kts 31°
2026-04-24 20:22 40.60736 -80.25694 36861 ft 452 kts 32°
2026-04-24 20:22 40.65767 -80.20723 36858 ft 452 kts 32°
2026-04-24 20:23 40.70795 -80.15752 36860 ft 451 kts 31°
2026-04-24 20:23 40.75819 -80.10784 36861 ft 452 kts 31°
2026-04-24 20:24 40.80850 -80.05814 36859 ft 451 kts 31°
2026-04-24 20:24 40.85872 -80.00843 36860 ft 451 kts 31°
2026-04-24 20:25 40.90848 -79.95900 36859 ft 449 kts 31°
2026-04-24 20:25 40.95881 -79.90927 36859 ft 448 kts 30°
2026-04-24 20:26 41.00878 -79.86109 36860 ft 448 kts 31°
2026-04-24 20:26 41.05824 -79.81079 36860 ft 448 kts 31°
2026-04-24 20:27 41.10767 -79.76068 36861 ft 448 kts 31°
2026-04-24 20:27 41.15729 -79.71079 36854 ft 447 kts 31°
2026-04-24 20:28 41.20679 -79.66103 36857 ft 446 kts 31°
2026-04-24 20:28 41.25629 -79.61124 36858 ft 446 kts 31°
2026-04-24 20:29 41.30562 -79.56132 36859 ft 445 kts 31°
2026-04-24 20:29 41.35488 -79.51128 36859 ft 446 kts 31°
2026-04-24 20:30 41.40423 -79.46127 36860 ft 446 kts 31°
2026-04-24 20:30 41.45356 -79.41126 36860 ft 445 kts 31°
2026-04-24 20:31 41.50285 -79.36120 36863 ft 445 kts 31°
2026-04-24 20:31 41.55215 -79.31104 36860 ft 446 kts 31°
2026-04-24 20:32 41.60137 -79.26087 36860 ft 445 kts 30°
2026-04-24 20:32 41.65056 -79.21062 36869 ft 445 kts 31°
2026-04-24 20:33 41.69975 -79.16026 36869 ft 445 kts 31°
2026-04-24 20:33 41.74889 -79.10986 36869 ft 445 kts 31°
2026-04-24 20:34 41.79794 -79.05944 36868 ft 445 kts 30°
2026-04-24 20:34 41.84710 -79.00884 36876 ft 446 kts 31°
2026-04-24 20:35 41.89621 -78.95817 36882 ft 445 kts 30°
2026-04-24 20:35 41.94528 -78.90739 36880 ft 445 kts 30°
2026-04-24 20:36 41.99419 -78.85636 36882 ft 445 kts 30°
2026-04-24 20:36 42.04302 -78.80544 36884 ft 444 kts 30°
2026-04-24 20:37 42.09176 -78.75466 36892 ft 443 kts 30°
2026-04-24 20:37 42.14054 -78.70390 36887 ft 443 kts 30°
2026-04-24 20:38 42.18934 -78.65306 36901 ft 444 kts 30°
2026-04-24 20:38 42.23808 -78.60199 36901 ft 443 kts 30°
2026-04-24 20:39 42.28678 -78.55093 36915 ft 443 kts 30°
2026-04-24 20:39 42.33547 -78.49978 36905 ft 443 kts 30°
2026-04-24 20:40 42.38419 -78.44854 36902 ft 443 kts 30°
2026-04-24 20:40 42.43247 -78.39752 36901 ft 443 kts 30°
2026-04-24 20:41 42.48108 -78.34616 36918 ft 442 kts 30°
2026-04-24 20:41 42.52950 -78.29484 36911 ft 442 kts 30°
2026-04-24 20:42 42.57788 -78.24348 36918 ft 442 kts 30°
2026-04-24 20:42 42.62627 -78.19186 36935 ft 443 kts 30°
2026-04-24 20:43 42.67460 -78.14004 36948 ft 442 kts 30°
2026-04-24 20:43 42.72291 -78.08832 36953 ft 442 kts 30°
2026-04-24 20:44 42.77117 -78.03667 36952 ft 441 kts 30°
2026-04-24 20:44 42.81939 -77.98497 36953 ft 441 kts 30°
2026-04-24 20:45 42.86751 -77.93327 36963 ft 440 kts 30°
2026-04-24 20:45 42.91558 -77.88151 36961 ft 440 kts 30°
2026-04-24 20:46 42.96356 -77.82974 36962 ft 439 kts 30°
2026-04-24 20:46 43.01148 -77.77795 36970 ft 439 kts 30°
2026-04-24 20:47 43.05939 -77.72611 36971 ft 438 kts 30°
2026-04-24 20:47 43.10717 -77.67428 36980 ft 438 kts 30°
2026-04-24 20:48 43.15489 -77.62236 36982 ft 438 kts 30°
2026-04-24 20:48 43.20174 -77.56841 36981 ft 444 kts 36°
2026-04-24 20:49 43.24511 -77.50773 36978 ft 447 kts 38°
2026-04-24 20:49 43.28768 -77.44565 36984 ft 447 kts 38°
2026-04-24 20:50 43.33046 -77.38379 36996 ft 447 kts 38°
2026-04-24 20:50 43.37314 -77.32243 36999 ft 447 kts 38°
2026-04-24 20:51 43.41612 -77.26066 36999 ft 447 kts 38°
2026-04-24 20:51 43.45902 -77.19879 36999 ft 447 kts 38°
2026-04-24 20:52 43.50194 -77.13680 36999 ft 447 kts 38°
2026-04-24 20:52 43.54480 -77.07470 36999 ft 447 kts 38°
2026-04-24 20:53 43.58767 -77.01252 36996 ft 447 kts 39°
2026-04-24 20:53 43.63049 -76.95023 36990 ft 447 kts 39°
2026-04-24 20:54 43.67330 -76.88785 36990 ft 448 kts 39°
2026-04-24 20:54 43.71607 -76.82535 36990 ft 447 kts 39°
2026-04-24 20:55 43.75877 -76.76279 36989 ft 447 kts 39°
2026-04-24 20:55 43.80134 -76.69983 36990 ft 448 kts 39°
2026-04-24 20:56 43.84397 -76.63679 36990 ft 448 kts 39°
2026-04-24 20:56 43.88662 -76.57379 36991 ft 448 kts 40°
2026-04-24 20:57 43.92936 -76.51066 36988 ft 449 kts 40°
2026-04-24 20:57 43.97208 -76.44744 36982 ft 449 kts 40°
2026-04-24 20:58 44.01472 -76.38412 36980 ft 449 kts 40°
2026-04-24 20:58 44.05733 -76.32074 36981 ft 449 kts 40°
2026-04-24 20:59 44.09994 -76.25728 36985 ft 449 kts 40°
2026-04-24 20:59 44.14253 -76.19363 36980 ft 449 kts 40°
2026-04-24 21:00 44.18505 -76.12997 36984 ft 449 kts 40°
2026-04-24 21:00 44.22036 -76.07696 36971 ft 449 kts 40°
2026-04-24 21:01 44.26288 -76.01306 36970 ft 449 kts 40°
2026-04-24 21:01 44.30530 -75.94903 36954 ft 448 kts 38°
2026-04-24 21:02 44.34697 -75.88573 36837 ft 433 kts 38°
2026-04-24 21:02 44.36693 -75.85507 36583 ft 423 kts 38°
2026-04-24 21:02 44.38671 -75.82483 36170 ft 421 kts 38°
2026-04-24 21:03 44.40668 -75.79448 35612 ft 426 kts 38°
2026-04-24 21:03 44.42684 -75.76390 35056 ft 428 kts 38°
2026-04-24 21:03 44.44703 -75.73327 34516 ft 428 kts 38°
2026-04-24 21:03 44.46724 -75.70257 33979 ft 429 kts 38°
2026-04-24 21:04 44.48749 -75.67176 33428 ft 430 kts 38°
2026-04-24 21:04 44.50778 -75.64083 32877 ft 431 kts 37°
2026-04-24 21:04 44.52809 -75.60984 32331 ft 432 kts 38°
2026-04-24 21:04 44.54841 -75.57879 31781 ft 433 kts 38°
2026-04-24 21:05 44.56874 -75.54770 31195 ft 433 kts 38°
2026-04-24 21:05 44.58907 -75.51653 30600 ft 434 kts 38°
2026-04-24 21:05 44.60947 -75.48524 30038 ft 434 kts 38°
2026-04-24 21:05 44.62989 -75.45390 29440 ft 435 kts 38°
2026-04-24 21:06 44.65031 -75.42249 28853 ft 437 kts 38°
2026-04-24 21:06 44.67089 -75.39086 28260 ft 439 kts 38°
2026-04-24 21:06 44.69151 -75.35913 27679 ft 441 kts 39°
2026-04-24 21:06 44.71222 -75.32721 27046 ft 442 kts 39°
2026-04-24 21:07 44.73287 -75.29531 26389 ft 439 kts 39°
2026-04-24 21:07 44.75331 -75.26366 25767 ft 435 kts 39°
2026-04-24 21:07 44.77359 -75.23222 25143 ft 432 kts 40°
2026-04-24 21:07 44.79368 -75.20105 24510 ft 428 kts 40°
2026-04-24 21:08 44.81357 -75.17016 23891 ft 424 kts 40°
2026-04-24 21:08 44.83331 -75.13949 23268 ft 420 kts 40°
2026-04-24 21:08 44.85283 -75.10912 22668 ft 416 kts 40°
2026-04-24 21:08 44.87217 -75.07903 22063 ft 413 kts 40°
2026-04-24 21:09 44.89134 -75.04913 21467 ft 409 kts 40°
2026-04-24 21:09 44.91023 -75.01941 20877 ft 405 kts 41°
2026-04-24 21:09 44.92896 -74.98989 20286 ft 402 kts 41°
2026-04-24 21:09 44.94756 -74.96060 19706 ft 398 kts 41°
2026-04-24 21:10 44.96573 -74.93203 19139 ft 395 kts 41°
2026-04-24 21:10 44.98401 -74.90333 18567 ft 391 kts 41°
2026-04-24 21:10 45.00239 -74.87451 17989 ft 388 kts 41°
2026-04-24 21:10 45.02010 -74.84672 17440 ft 385 kts 42°
2026-04-24 21:11 45.03790 -74.81878 16882 ft 381 kts 42°
2026-04-24 21:11 45.05555 -74.79103 16324 ft 377 kts 42°
2026-04-24 21:11 45.07301 -74.76355 15777 ft 374 kts 42°
2026-04-24 21:11 45.09034 -74.73627 15229 ft 371 kts 43°
2026-04-24 21:12 45.10750 -74.70917 14681 ft 368 kts 43°
2026-04-24 21:12 45.12449 -74.68234 14133 ft 364 kts 43°
2026-04-24 21:12 45.14136 -74.65570 13607 ft 361 kts 43°
2026-04-24 21:12 45.15805 -74.62930 13069 ft 359 kts 44°
2026-04-24 21:13 45.17463 -74.60309 12555 ft 355 kts 44°
2026-04-24 21:13 45.19105 -74.57708 12026 ft 352 kts 44°
2026-04-24 21:13 45.20727 -74.55135 11559 ft 349 kts 45°
2026-04-24 21:13 45.22338 -74.52578 11269 ft 347 kts 45°
2026-04-24 21:14 45.23913 -74.50073 11146 ft 328 kts 45°
2026-04-24 21:14 45.25359 -74.47764 11024 ft 298 kts 45°
2026-04-24 21:14 45.26686 -74.45642 10915 ft 279 kts 45°
2026-04-24 21:14 45.27955 -74.43619 10819 ft 271 kts 45°
2026-04-24 21:15 45.29206 -74.41630 10719 ft 270 kts 45°
2026-04-24 21:15 45.30459 -74.39640 10533 ft 270 kts 45°
2026-04-24 21:15 45.31710 -74.37647 10140 ft 269 kts 45°
2026-04-24 21:15 45.32957 -74.35660 9647 ft 270 kts 46°
2026-04-24 21:16 45.34207 -74.33669 9165 ft 270 kts 46°
2026-04-24 21:16 45.35459 -74.31667 8691 ft 271 kts 47°
2026-04-24 21:16 45.36693 -74.29676 8219 ft 268 kts 47°
2026-04-24 21:16 45.37922 -74.27688 7762 ft 267 kts 47°
2026-04-24 21:17 45.39154 -74.25719 7344 ft 267 kts 46°
2026-04-24 21:17 45.40372 -74.23772 6933 ft 258 kts 46°
2026-04-24 21:17 45.41551 -74.21882 6555 ft 254 kts 47°
2026-04-24 21:17 45.42710 -74.20025 6387 ft 244 kts 47°
2026-04-24 21:18 45.43775 -74.18313 6271 ft 222 kts 47°
2026-04-24 21:18 45.44780 -74.16698 6169 ft 215 kts 47°
2026-04-24 21:18 45.45805 -74.15150 5947 ft 214 kts 38°
2026-04-24 21:18 45.47100 -74.14246 5559 ft 212 kts
2026-04-24 21:19 45.48534 -74.14547 5157 ft 213 kts 336°
2026-04-24 21:19 45.49735 -74.15784 4510 ft 215 kts 321°
2026-04-24 21:19 45.50800 -74.17218 4036 ft 204 kts 319°
2026-04-24 21:19 45.51819 -74.18532 3650 ft 192 kts 328°
2026-04-24 21:20 45.54252 -74.19324 3009 ft 178 kts 16°
2026-04-24 21:20 45.55334 -74.18504 3027 ft 178 kts 38°
2026-04-24 21:20 45.56295 -74.17361 2998 ft 179 kts 40°
2026-04-24 21:21 45.57223 -74.16161 2951 ft 181 kts 43°
2026-04-24 21:21 45.58124 -74.14914 2720 ft 180 kts 44°
2026-04-24 21:21 45.59016 -74.13660 2489 ft 180 kts 44°
2026-04-24 21:21 45.59905 -74.12400 2244 ft 180 kts 45°
2026-04-24 21:22 45.60784 -74.11123 2001 ft 181 kts 46°
2026-04-24 21:22 45.61660 -74.09851 1782 ft 180 kts 45°
2026-04-24 21:22 45.62535 -74.08630 1520 ft 168 kts 45°
2026-04-24 21:22 45.63315 -74.07521 1286 ft 149 kts 46°
2026-04-24 21:23 45.64024 -74.06481 1103 ft 145 kts 46°
2026-04-24 21:23 45.64741 -74.05470 928 ft 145 kts 45°
2026-04-24 21:23 45.65453 -74.04461 727 ft 145 kts 45°
2026-04-24 21:23 45.66173 -74.03457 501 ft 144 kts 45°
2026-04-24 21:24 45.66887 -74.02433 375 ft 146 kts 47°
2026-04-24 21:24 45.67585 -74.01435 279 ft 135 kts 45°
2026-04-24 21:24 45.68160 -74.00614 275 ft 95 kts 45°
2026-04-24 21:24 45.68528 -74.00070 270 ft 44 kts 44°
2026-04-24 21:25 45.68651 -73.99943 270 ft 19 kts 21°
2026-04-24 21:25 45.68774 -73.99884 269 ft 19 kts 18°
2026-04-24 21:25 45.68895 -73.99829 268 ft 17 kts 17°
2026-04-24 21:25 45.69001 -73.99840 268 ft 15 kts 335°
2026-04-24 21:26 45.69074 -73.99931 268 ft 13 kts 302°
2026-04-24 21:26 45.69094 -74.00054 268 ft 14 kts 269°
2026-04-24 21:26 45.69054 -74.00207 269 ft 19 kts 234°
2026-04-24 21:26 45.68953 -74.00362 272 ft 23 kts 226°
2026-04-24 21:27 45.68843 -74.00522 270 ft 22 kts 225°
2026-04-24 21:27 45.68741 -74.00671 271 ft 20 kts 225°
2026-04-24 21:27 45.68631 -74.00828 272 ft 25 kts 225°
2026-04-24 21:27 45.68508 -74.01005 276 ft 24 kts 225°
2026-04-24 21:28 45.68391 -74.01170 273 ft 23 kts 225°
2026-04-24 21:28 45.68283 -74.01324 279 ft 21 kts 225°
2026-04-24 21:28 45.68188 -74.01459 275 ft 14 kts 225°
2026-04-24 21:28 45.68178 -74.01535 275 ft 6 kts 292°
2026-04-24 21:29 45.68217 -74.01625 275 ft 15 kts 311°
2026-04-24 21:29 45.68287 -74.01727 275 ft 14 kts 315°
2026-04-24 21:29 45.68352 -74.01822 277 ft 13 kts 314°
2026-04-24 21:29 45.68412 -74.01909 277 ft 12 kts 314°
2026-04-24 21:30 45.68439 -74.01932 275 ft 1 kts 356°
2026-04-24 21:30 45.68447 -74.01925 275 ft 2 kts 28°
2026-04-24 21:30 45.68452 -74.01904 275 ft 2 kts 79°
2026-04-24 21:30 45.68449 -74.01861 275 ft 4 kts 99°
2026-04-24 21:31 45.68443 -74.01827 275 ft 4 kts 102°
2026-04-24 21:31 45.68432 -74.01754 275 ft 9 kts 103°
2026-04-24 21:31 45.68439 -74.01689 275 ft 6 kts 66°
2026-04-24 21:31 45.68449 -74.01638 277 ft 5 kts 85°
2026-04-24 21:32 45.68446 -74.01620 274 ft 1 kts 109°
2026-04-24 21:32 45.68442 -74.01614 274 ft 0 kts 123°
2026-04-24 21:32 45.68430 -74.01595 274 ft 6 kts 133°
2026-04-24 21:32 45.68420 -74.01578 277 ft 2 kts 127°
2026-04-24 21:33 45.68416 -74.01570 274 ft 0 kts 127°